| time (UTC) | temp F | wind direction | speed MPH | gust MPH | rain 1hr in | rain 24hr in | rain mn in | humidity % | barometer mb |
| 20260510203003 | 77 | 285 | 1.0 | 6.0 | 0.00 | 0.00 | 0.00 | 54 | 1012.2 |
| 20260510201545 | 76 | 283 | 3.0 | 8.0 | 0.00 | 0.00 | 0.00 | 55 | 1012.2 |
| 20260510200118 | 75 | 306 | 3.0 | 11.0 | 0.00 | 0.00 | 0.00 | 54 | 1012.4 |
| 20260510200002 | 75 | 309 | 5.0 | 14.0 | 0.00 | 0.00 | 0.00 | 54 | 1012.5 |
| 20260510194555 | 76 | 281 | 2.0 | 9.0 | 0.00 | 0.00 | 0.00 | 52 | 1012.5 |
| 20260510193002 | 77 | 298 | 1.0 | 10.0 | 0.00 | 0.00 | 0.00 | 47 | 1012.5 |
| 20260510191543 | 77 | 293 | 0.0 | 7.0 | 0.00 | 0.00 | 0.00 | 45 | 1012.7 |
| 20260510190025 | 78 | 266 | 5.0 | 10.0 | 0.00 | 0.00 | 0.00 | 43 | 1012.7 |
| 20260510184546 | 79 | 278 | 7.0 | 12.0 | 0.00 | 0.00 | 0.00 | 42 | 1012.8 |
| 20260510183015 | 79 | 200 | 0.0 | 8.0 | 0.00 | 0.00 | 0.00 | 46 | 1012.8 |
| 20260510181539 | 78 | 283 | 3.0 | 10.0 | 0.00 | 0.00 | 0.00 | 45 | 1012.9 |
| 20260510180017 | 78 | 224 | 5.0 | 10.0 | 0.00 | 0.00 | 0.00 | 48 | 1013.0 |
| 20260510174556 | 78 | 276 | 3.0 | 13.0 | 0.00 | 0.00 | 0.00 | 45 | 1013.0 |
| 20260510173013 | 78 | 264 | 3.0 | 11.0 | 0.00 | 0.00 | 0.00 | 48 | 1012.8 |
| 20260510171549 | 78 | 248 | 3.0 | 9.0 | 0.00 | 0.00 | 0.00 | 50 | 1013.0 |
| 20260510170015 | 77 | 270 | 5.0 | 8.0 | 0.00 | 0.00 | 0.00 | 52 | 1013.0 |
| 20260510164608 | 76 | 236 | 5.0 | 10.0 | 0.00 | 0.00 | 0.00 | 51 | 1013.0 |
| 20260510163031 | 75 | 252 | 1.0 | 7.0 | 0.00 | 0.00 | 0.00 | 52 | 1013.2 |
| 20260510161510 | 74 | 297 | 1.0 | 6.0 | 0.00 | 0.00 | 0.00 | 54 | 1013.1 |
| 20260510160032 | 75 | 296 | 2.0 | 7.0 | 0.00 | 0.00 | 0.00 | 54 | 1013.3 |
| 20260510154516 | 73 | 260 | 0.0 | 6.0 | 0.00 | 0.00 | 0.00 | 59 | 1013.4 |
| 20260510153047 | 71 | 257 | 4.0 | 10.0 | 0.00 | 0.00 | 0.00 | 60 | 1013.6 |
| 20260510151526 | 71 | 136 | 2.0 | 5.0 | 0.00 | 0.00 | 0.00 | 64 | 1013.5 |
| 20260510150055 | 70 | 44 | 1.0 | 4.0 | 0.00 | 0.00 | 0.00 | 67 | 1013.5 |
| 20260510144522 | 70 | 287 | 0.0 | 3.0 | 0.00 | 0.00 | 0.00 | 68 | 1013.6 |
| 20260510143034 | 68 | 65 | 0.0 | 0.0 | 0.00 | 0.00 | 0.00 | 73 | 1013.6 |
| 20260510141529 | 66 | 68 | 1.0 | 3.0 | 0.00 | 0.00 | 0.00 | 78 | 1013.7 |
| 20260510140010 | 64 | 269 | 0.0 | 3.0 | 0.00 | 0.00 | 0.00 | 81 | 1013.6 |
| 20260510134547 | 62 | 274 | 0.0 | 2.0 | 0.00 | 0.00 | 0.00 | 84 | 1013.5 |
| 20260510133014 | 60 | 306 | 0.0 | 0.0 | 0.00 | 0.00 | 0.00 | 88 | 1013.6 |
| 20260510131535 | 58 | 306 | 0.0 | 0.0 | 0.00 | 0.00 | 0.00 | 91 | 1013.7 |
| 20260510130007 | 55 | 308 | 0.0 | 0.0 | 0.00 | 0.00 | 0.00 | 93 | 1013.7 |
| 20260510124523 | 54 | 308 | 0.0 | 3.0 | 0.00 | 0.00 | 0.00 | 93 | 1013.6 |
| 20260510123057 | 54 | 285 | 0.0 | 2.0 | 0.00 | 0.00 | 0.00 | 93 | 1013.4 |
| 20260510121537 | 53 | 298 | 0.0 | 3.0 | 0.00 | 0.00 | 0.00 | 93 | 1013.2 |
| 20260510120053 | 53 | 273 | 1.0 | 4.0 | 0.00 | 0.00 | 0.00 | 93 | 1013.2 |
| 20260510114600 | 52 | 56 | 1.0 | 4.0 | 0.00 | 0.00 | 0.00 | 93 | 1012.9 |
| 20260510113057 | 52 | 269 | 1.0 | 5.0 | 0.00 | 0.00 | 0.00 | 93 | 1012.8 |
| 20260510111533 | 52 | 11 | 0.0 | 2.0 | 0.00 | 0.00 | 0.00 | 93 | 1012.6 |
| 20260510110100 | 52 | 101 | 0.0 | 1.0 | 0.00 | 0.00 | 0.00 | 93 | 1012.2 |
| 20260510110005 | 52 | 101 | 0.0 | 1.0 | 0.00 | 0.00 | 0.00 | 93 | 1012.2 |
| 20260510104516 | 51 | 100 | 0.0 | 1.0 | 0.00 | 0.00 | 0.00 | 93 | 1012.2 |
| 20260510103036 | 51 | 67 | 0.0 | 3.0 | 0.00 | 0.00 | 0.00 | 93 | 1012.0 |
| 20260510101514 | 51 | 41 | 0.0 | 3.0 | 0.00 | 0.00 | 0.00 | 93 | 1012.2 |
| 20260510100012 | 50 | 8 | 0.0 | 2.0 | 0.00 | 0.00 | 0.00 | 92 | 1012.1 |
| 20260510094557 | 50 | 267 | 0.0 | 3.0 | 0.00 | 0.00 | 0.00 | 92 | 1011.9 |
| 20260510093010 | 50 | 308 | 1.0 | 7.0 | 0.00 | 0.00 | 0.00 | 92 | 1011.9 |
| 20260510091549 | 50 | 309 | 0.0 | 1.0 | 0.00 | 0.00 | 0.00 | 92 | 1011.2 |
| 20260510090032 | 50 | 18 | 0.0 | 0.0 | 0.00 | 0.00 | 0.00 | 92 | 1011.1 |
| 20260510084548 | 50 | 128 | 0.0 | 1.0 | 0.00 | 0.00 | 0.00 | 92 | 1011.0 |
| 20260510083038 | 50 | 323 | 0.0 | 1.0 | 0.00 | 0.00 | 0.00 | 92 | 1011.0 |
| 20260510081548 | 51 | 252 | 0.0 | 1.0 | 0.00 | 0.00 | 0.00 | 92 | 1010.9 |
| 20260510080028 | 51 | 187 | 0.0 | 0.0 | 0.00 | 0.00 | 0.00 | 92 | 1010.7 |
| 20260510074506 | 51 | 186 | 0.0 | 0.0 | 0.00 | 0.00 | 0.00 | 91 | 1010.5 |
| 20260510073049 | 51 | 127 | 0.0 | 1.0 | 0.00 | 0.00 | 0.00 | 91 | 1010.4 |
| 20260510071514 | 51 | 127 | 0.0 | 1.0 | 0.00 | 0.00 | 0.00 | 91 | 1010.3 |
| 20260510070103 | 52 | 132 | 0.0 | 2.0 | 0.00 | 0.00 | 0.00 | 91 | 1010.2 |
| 20260510064510 | 52 | 108 | 0.0 | 1.0 | 0.00 | 0.00 | 0.00 | 91 | 1010.4 |
| 20260510063059 | 52 | 101 | 0.0 | 3.0 | 0.00 | 0.00 | 0.00 | 91 | 1010.6 |
| 20260510061518 | 52 | 72 | 0.0 | 2.0 | 0.00 | 0.00 | 0.00 | 91 | 1010.7 |
| 20260510060054 | 52 | 91 | 1.0 | 3.0 | 0.00 | 0.00 | 0.00 | 90 | 1010.6 |
| 20260510054538 | 52 | 101 | 1.0 | 2.0 | 0.00 | 0.00 | 0.00 | 90 | 1010.8 |
| 20260510053052 | 52 | 101 | 0.0 | 2.0 | 0.00 | 0.00 | 0.00 | 90 | 1010.8 |
| 20260510051537 | 53 | 111 | 0.0 | 2.0 | 0.00 | 0.00 | 0.00 | 90 | 1010.9 |
| 20260510050042 | 53 | 99 | 0.0 | 2.0 | 0.00 | 0.00 | 0.00 | 90 | 1010.9 |
| 20260510044508 | 53 | 98 | 1.0 | 3.0 | 0.00 | 0.00 | 0.00 | 90 | 1011.1 |
| 20260510043028 | 53 | 124 | 0.0 | 3.0 | 0.00 | 0.00 | 0.00 | 89 | 1011.1 |
| 20260510041506 | 53 | 101 | 1.0 | 3.0 | 0.00 | 0.00 | 0.00 | 89 | 1011.1 |
| 20260510040036 | 54 | 79 | 2.0 | 4.0 | 0.00 | 0.00 | 0.00 | 89 | 1011.1 |
| 20260510034550 | 54 | 75 | 1.0 | 4.0 | 0.00 | 0.00 | 0.00 | 89 | 1011.0 |
| 20260510033031 | 54 | 115 | 1.0 | 2.0 | 0.00 | 0.00 | 0.00 | 89 | 1010.9 |
| 20260510031553 | 54 | 98 | 1.0 | 3.0 | 0.00 | 0.00 | 0.00 | 89 | 1010.7 |
| 20260510030029 | 54 | 92 | 1.0 | 4.0 | 0.00 | 0.00 | 0.00 | 88 | 1010.6 |
| 20260510024545 | 55 | 70 | 1.0 | 3.0 | 0.00 | 0.00 | 0.00 | 88 | 1010.6 |
| 20260510023025 | 55 | 75 | 1.0 | 3.0 | 0.00 | 0.00 | 0.00 | 88 | 1010.7 |
| 20260510021505 | 55 | 89 | 1.0 | 3.0 | 0.00 | 0.00 | 0.00 | 87 | 1010.7 |
| 20260510020029 | 55 | 92 | 2.0 | 4.0 | 0.00 | 0.00 | 0.00 | 87 | 1010.7 |
| 20260510014505 | 56 | 105 | 1.0 | 4.0 | 0.00 | 0.00 | 0.00 | 86 | 1010.6 |
| 20260510013037 | 56 | 80 | 2.0 | 3.0 | 0.00 | 0.00 | 0.00 | 86 | 1010.6 |
| 20260510011511 | 57 | 80 | 1.0 | 4.0 | 0.00 | 0.00 | 0.00 | 85 | 1010.5 |
| 20260510010031 | 57 | 107 | 0.0 | 3.0 | 0.00 | 0.00 | 0.00 | 85 | 1010.4 |
| 20260510004511 | 57 | 91 | 1.0 | 3.0 | 0.00 | 0.00 | 0.00 | 84 | 1010.4 |
| 20260510003037 | 57 | 79 | 0.0 | 1.0 | 0.00 | 0.00 | 0.00 | 83 | 1010.3 |
| 20260510001523 | 58 | 85 | 0.0 | 2.0 | 0.00 | 0.00 | 0.00 | 81 | 1010.3 |
| 20260510000031 | 59 | 56 | 0.0 | 2.0 | 0.00 | 0.00 | 0.00 | 79 | 1010.3 |
| 20260509234515 | 60 | 114 | 0.0 | 4.0 | 0.00 | 0.00 | 0.00 | 78 | 1010.1 |
| 20260509233045 | 60 | 70 | 2.0 | 5.0 | 0.00 | 0.00 | 0.00 | 77 | 1010.0 |
| 20260509231557 | 61 | 111 | 1.0 | 4.0 | 0.00 | 0.00 | 0.00 | 75 | 1009.9 |
| 20260509230041 | 61 | 79 | 1.0 | 5.0 | 0.00 | 0.00 | 0.00 | 75 | 1009.8 |
| 20260509224519 | 61 | 20 | 0.0 | 4.0 | 0.00 | 0.00 | 0.00 | 75 | 1009.9 |
| 20260509223049 | 61 | 96 | 2.0 | 7.0 | 0.00 | 0.00 | 0.00 | 76 | 1010.0 |
| 20260509221523 | 61 | 9 | 4.0 | 6.0 | 0.00 | 0.00 | 0.00 | 75 | 1010.0 |
| 20260509220100 | 61 | 65 | 2.0 | 7.0 | 0.00 | 0.00 | 0.00 | 74 | 1010.1 |
| 20260509214542 | 62 | 39 | 1.0 | 7.0 | 0.00 | 0.00 | 0.00 | 74 | 1010.0 |
| 20260509213056 | 62 | 15 | 4.0 | 10.0 | 0.00 | 0.00 | 0.00 | 73 | 1010.1 |
| 20260509211532 | 62 | 71 | 2.0 | 6.0 | 0.00 | 0.00 | 0.00 | 71 | 1010.3 |
| 20260509210012 | 63 | 330 | 1.0 | 5.0 | 0.00 | 0.00 | 0.00 | 71 | 1009.9 |
| 20260509204549 | 63 | 77 | 3.0 | 7.0 | 0.00 | 0.00 | 0.00 | 69 | 1009.9 |